Résultats de la compétition "Moyenne Distance ADOC" du 12-05-2007 organisée par le club 2105
     
  Télécharger le fichier CSV.  
     
     

 Circuit "Circuit B"

Licence Nom Prénom Temps CN
précédent
Score sur
la course
Différence
1843BOUSSEREtienne0:35:38N/A5780N/A
2738VENONGerard0:36:37N/A5624N/A
14628KOTECKAMichaela0:38:15N/A5384N/A
1993PERICHONBernard0:38:28N/A5354N/A
15917KAMMERERMadeleine0:38:59N/A5283N/A
2722PARIGOTVirginie0:39:46N/A5179N/A
14238PARISMarie0:41:11N/A5001N/A
1848DERMINEJean0:42:11N/A4882N/A
2759PAPILLONCecile0:42:17N/A4871N/A
193MANISSOLLEYves0:42:31N/A4844N/A
702WYMERIsabelle0:42:41N/A4825N/A
1557CHATELONLucile0:43:42N/A4713N/A
2440MASSONPhilippe0:43:57N/A4686N/A
2034BAROUXJacky0:44:21N/A4644N/A
923PREVOSTPatrick0:44:28N/A4631N/A
8514VASSYMargaux0:44:43N/A4606N/A
8567BARDESPhilippe0:44:45N/A4602N/A
16029TEMPORELLISophie0:45:00N/A4577N/A
8952LEMAIRECecilia0:45:26N/A4533N/A
801BARRIERMarianne0:45:28N/A4530N/A
2328MOISSETJacques0:45:45N/A4502N/A
1398HERMETAndre0:46:05N/A4469N/A
1005ALLANCONMichel0:46:13N/A4456N/A
2069GOUYERRobert0:46:20N/A4445N/A
2032BAROUXCeline0:46:22N/A4442N/A
10725MOUGELLyse0:46:33N/A4424N/A
3991MOLINIERLea0:46:42N/A4410N/A
2760PAPILLONDaniel0:47:43N/A4316N/A
2179OLIVIERSandra0:47:51N/A4304N/A
14302CAMPBELLNick0:48:05N/A4283N/A
11017PROSTChristian0:48:08N/A4279N/A
4890CLERCGaston0:48:33N/A4242N/A
2730PERECatherine0:48:37N/A4236N/A
1086ROBERTChristian0:49:57N/A4123N/A
1928CHAILLARDMarketa0:49:58N/A4122N/A
11476DEBOCQMAINEAgnes0:50:04N/A4113N/A
12771OBSTETARAnne0:50:04N/A4113N/A
13692HAURYEvelyne0:50:14N/A4100N/A
703ABISSEJacques0:50:17N/A4096N/A
320BAGUEREYGilles0:50:19N/A4093N/A
2878PATURETBertrand0:50:28N/A4081N/A
9396LE DREAUJ-Claude0:51:30N/A3999N/A
12528LAVETTIEmmanuelle0:51:32N/A3996N/A
8890BARSANTIPatricia0:51:40N/A3986N/A
8543HEROUARDNina0:51:59N/A3962N/A
4317MASSONMichel0:52:00N/A3960N/A
4059FAIVREDaniel0:52:06N/A3953N/A
571LEPETITMichel0:52:11N/A3947N/A
1514CHARLESThierry0:52:22N/A3933N/A
16117TARDYLaetitia0:52:30N/A3923N/A
1847DERMINEIsabelle0:53:04N/A3881N/A
5463DENAIXOriane0:53:05N/A3880N/A
16588BESCHFrederic0:53:22N/A3859N/A
543PORTESJean-Raymond0:53:24N/A3857N/A
16532VIOLLOTAriane0:53:26N/A3854N/A
9997MOUEZYAndre0:53:28N/A3852N/A
826LAVIALLEFlorence0:53:30N/A3849N/A
12179MICHONNEAUAnne0:53:30N/A3849N/A
3057DELATOURChristiane0:53:39N/A3839N/A
3526BRISEPIERRERichard0:54:00N/A3814N/A
249GANDONJ-Claude0:54:17N/A3794N/A
6612ABELMartine0:54:29N/A3780N/A
15015GUINOTVéronique0:54:34N/A3774N/A
9426LERICHECamille0:54:55N/A3750N/A
132BODELETHerve0:55:20N/A3722N/A
7573OUDINBernard0:55:27N/A3714N/A
17705GOURDAlison0:55:39N/A3701N/A
4751ROIRANDLine0:55:52N/A3686N/A
4734KOWALCZYKFrancis0:56:19N/A3657N/A
13243MACABIAUEmilia0:56:26N/A3649N/A
6995DECARPIGNYGwladys0:56:59N/A3614N/A
632DUBROCAChristele0:57:04N/A3609N/A
12060PITAVALSylvie0:57:16N/A3596N/A
1971CHARRIERDaniel0:57:33N/A3579N/A
5597EJSMONTJean0:58:08N/A3543N/A
10284GRATIENAurore0:58:43N/A3507N/A
2571DURIEUXPierre0:58:51N/A3499N/A
1605LEPOUPONAndre0:59:15N/A3476N/A
18284ROESLELaurent0:59:25N/A3466N/A
7703RORAIsabelle0:59:42N/A3450N/A
2411ROLLETDaniel0:59:59N/A3433N/A
655QUEYROIHenri1:00:01N/A3431N/A
930SIMONETJean1:00:01N/A3431N/A
12646BLUMVirginie1:00:14N/A3419N/A
13913MARTINEZHelene1:00:16N/A3417N/A
10503MAZARDJ-Pierre1:00:17N/A3416N/A
14676BORCHORST RICARDClarissa1:00:17N/A3416N/A
8928MASCARELLHenri1:00:59N/A3377N/A
455GUIGUETMichel1:01:02N/A3374N/A
9933BASSETSylvie1:01:11N/A3366N/A
5533THIEBAULTJ-Philippe1:01:14N/A3363N/A
1372ROUGEONChristophe1:03:29N/A3244N/A
10502PELLETIERGenevieve1:04:01N/A3217N/A
6521LACENAIREPatrice1:04:06N/A3213N/A
8920TOUZAIN ROULLEAUXIsabelle1:04:11N/A3209N/A
2343DUFOURMarcel1:04:11N/A3209N/A
4391DODINYves1:04:27N/A3195N/A
10684ROCHESandrine1:04:30N/A3193N/A
815FERRETTIBernard1:04:31N/A3192N/A
9870LE-GOALLECAnaïs1:04:51N/A3176N/A
2263LEMBLEAndre1:04:54N/A3173N/A
3137MANOClaudio1:04:56N/A3172N/A
800BARRIERCarole1:05:05N/A3164N/A
13688FRANCOISAline1:05:44N/A3133N/A
11507LEBIHANMartine1:05:58N/A3122N/A
2445RIFFARDJ-Claude1:06:23N/A3102N/A
3200RAUTURIERNathalie1:06:56N/A3077N/A
1731PREAUCatherine1:07:00N/A3074N/A
2679KIEFFERJ-Paul1:07:01N/A3073N/A
10260LEBIHANSarah1:07:11N/A3065N/A
4389THIEBAULDGeorges1:07:19N/A3059N/A
933SOLMichel1:07:21N/A3058N/A
17933LEGENDREM-Noelle1:07:24N/A3056N/A
10720GUIGNONSabine1:08:07N/A3023N/A
3356CHARIAUMichel1:09:23N/A2968N/A
10822ROUXKatell1:09:35N/A2960N/A
10979LEMAIRENathalie1:10:13N/A2933N/A
4377PAOLUCCIRene-Claude1:10:19N/A2929N/A
7044LOTERIEMurielle1:10:48N/A2909N/A
12386COUDERCElise1:10:59N/A2901N/A
9523WULLUSJ-Noel1:11:05N/A2897N/A
15332MEYERPatricia1:11:53N/A2865N/A
4215CHAPUISLaurence1:12:04N/A2858N/A
13061STEINVirginie1:12:05N/A2857N/A
935TESTOUDPhilippe1:12:22N/A2846N/A
13672BLUMSylvain1:12:31N/A2840N/A
10283GRATIENNathalie1:13:13N/A2813N/A
8549CLOUARDFlorence1:14:34N/A2762N/A
7048HAGARDVirginie1:14:58N/A2747N/A
14576GAFFURIA-Laure1:15:02N/A2745N/A
2532MONTANARIClaude1:15:29N/A2728N/A
3406FLAMBEAUClaudine1:15:54N/A2713N/A
12356RINGOTVeronique1:16:09N/A2704N/A
2884LECOYERRegis1:16:28N/A2693N/A
2262LEMBLEAdeline1:16:33N/A2690N/A
10394INDEAUXCatherine1:17:07N/A2671N/A
17899DEPERSINIsabelle1:17:18N/A2664N/A
3565DUSIGNEStephanie1:17:42N/A2651N/A
9352CALANDRYLucia1:19:27N/A2592N/A
9619PECHSTEINAlice1:19:32N/A2589N/A
2349HELIOTClaude1:20:28N/A2559N/A
10496DUPOIRIEUXSophie1:20:29N/A2559N/A
15655PENNETCeline1:23:23N/A2470N/A
11369GUIGNARDM-Christine1:24:16N/A2444N/A
13776GESRETLaetitia1:24:43N/A2431N/A
570GUICHARDONGeorges1:27:19N/A2359N/A
13150GUETAZLaure1:29:31N/A2301N/A
18607FAYE-BUANTAdeline1:29:54N/A2291N/A
16309CAVARROCCeline1:34:04N/A2189N/A
14051BOUSSERChristine1:39:00N/A2080N/A
11308BOULESTREAUFrancoise1:41:59N/A2019N/A
18561JUNALIKFrançois1:44:42N/A1967N/A
14584FERRATONGenevieve1:49:17N/A1885N/A
4321MINARDAgnes1:53:09N/A1820N/A
17309BESTELFlorence1:55:50N/A1778N/A
2528HOFFMireille2:00:34N/A1708N/A
18566RESMONDNathalie2:03:10N/A1672N/A
2320DENAIXEstelleN/AN/A0N/A
12715BOCQUETPascaleN/AN/A0N/A
17764CHOUKROUNGyongyikeN/AN/A0N/A
8445FINASCelineN/AN/A0N/A
15795DESRUMAUXCelineN/AN/A0N/A
11389CLEMENT-AGONIJ-PierreN/AN/A0N/A
16297LAROCHEMaroussiaN/AN/A0N/A
9472JOUZEAUGeorgesN/AN/A0N/A
871BERTONDidierN/AN/A0N/A

  Indice de confiance du circuit (moyenne des différences entre CN et score sur la course des 3 à 10 premiers) : 56






 Retour